TimeEST,TemperatureF,Dew PointF,Humidity,Sea Level PressureIn,VisibilityMPH,Wind Direction,Wind SpeedMPH,Gust SpeedMPH,PrecipitationIn,Events,Conditions,WindDirDegrees,DateUTC
12:54 AM,30.9,28.0,89,30.06,10.0,SW,3.5,-,N/A,,Clear,220,2014-01-17 05:54:00
1:54 AM,30.9,27.0,85,30.06,10.0,SW,4.6,-,N/A,,Clear,220,2014-01-17 06:54:00
2:54 AM,35.1,25.0,67,30.06,10.0,SSW,5.8,-,N/A,,Clear,210,2014-01-17 07:54:00
3:54 AM,34.0,25.0,70,30.04,10.0,SSW,4.6,-,N/A,,Clear,210,2014-01-17 08:54:00
4:54 AM,33.1,24.1,70,30.04,10.0,SSW,5.8,-,N/A,,Clear,200,2014-01-17 09:54:00
5:54 AM,33.1,24.1,70,30.04,10.0,SSW,4.6,-,N/A,,Clear,200,2014-01-17 10:54:00
6:54 AM,33.1,24.1,70,30.05,10.0,Variable,3.5,-,N/A,,Clear,0,2014-01-17 11:54:00
8:54 AM,37.0,24.1,59,30.06,10.0,SSW,6.9,-,N/A,,Clear,210,2014-01-17 13:54:00
9:54 AM,43.0,24.1,47,30.07,10.0,SW,9.2,-,N/A,,Clear,230,2014-01-17 14:54:00
10:54 AM,46.9,28.0,48,30.05,10.0,SSW,6.9,-,N/A,,Clear,200,2014-01-17 15:54:00
11:54 AM,50.0,30.0,46,30.01,10.0,South,12.7,18.4,N/A,,Clear,190,2014-01-17 16:54:00
12:54 PM,53.1,33.1,47,29.97,10.0,South,9.2,-,N/A,,Clear,190,2014-01-17 17:54:00
1:54 PM,55.0,36.0,49,29.93,10.0,SSW,6.9,-,N/A,,Clear,200,2014-01-17 18:54:00
2:54 PM,55.9,36.0,47,29.92,10.0,SSW,9.2,17.3,N/A,,Clear,210,2014-01-17 19:54:00
3:54 PM,55.0,37.0,51,29.91,10.0,SSW,8.1,-,N/A,,Clear,210,2014-01-17 20:54:00
4:54 PM,54.0,37.9,55,29.91,10.0,SSW,4.6,-,N/A,,Clear,210,2014-01-17 21:54:00
5:54 PM,52.0,37.9,59,29.89,10.0,South,4.6,-,N/A,,Clear,170,2014-01-17 22:54:00
6:54 PM,48.9,39.0,69,29.90,10.0,Calm,Calm,-,N/A,,Clear,0,2014-01-17 23:54:00
7:54 PM,46.9,39.0,74,29.91,10.0,South,3.5,-,N/A,,Clear,190,2014-01-18 00:54:00
8:54 PM,46.9,39.9,77,29.91,10.0,South,4.6,-,N/A,,Clear,190,2014-01-18 01:54:00
9:54 PM,46.9,39.9,77,29.90,10.0,South,4.6,-,N/A,,Overcast,180,2014-01-18 02:54:00
10:54 PM,48.0,41.0,77,29.90,10.0,SW,8.1,-,N/A,,Partly Cloudy,220,2014-01-18 03:54:00
11:54 PM,45.0,39.0,80,29.87,10.0,West,5.8,-,N/A,,Clear,260,2014-01-18 04:54:00